Tracking 20719 objects as of 26-May-2020
HD Live streaming from Space Station
objects crossing your sky now

STRV 1A

Track STRV 1A now!
10-day predictions
STRV 1A is classified as:


NORAD ID: 23125
Int'l Code: 1994-034B
Perigee: 276.7 km
Apogee: 25,812.2 km
Inclination: 7.2 °
Period: 448.7 minutes
Semi major axis: 19415 km
RCS: 0.2699 m2 (medium)
Launch date: June 17, 1994
Source: United Kingdom (UK)
Launch site: FRENCH GUIANA (FRGUI)
aabbcc
Your satellite tracking list
Your tracking list is empty




NASA's NSSDC Master Catalog

Two Line Element Set (TLE):
1 23125U 94034B   20144.43447100 +.00000789 +00000-0 +17704-3 0  9993
2 23125 007.2026 252.9336 6576063 254.0317 029.0580 03.20908624260766
Source of the keplerian elements: AFSPC